FW7047 Weather Reports


Display with metric or nautical units.
time (UTC)temp
F
wind
direction
speed
MPH
gust
MPH
rain 1hr
in
rain 24hr
in
rain mn
in
humidity
%
barometer
mb
20210921135518 43 207 0.0 0.0 0.00 0.00 0.00 58 1025.5
20210921134522 43 180 0.0 0.0 0.00 0.00 0.00 59 1025.5
20210921133524 43 187 0.0 0.0 0.00 0.00 0.00 59 1025.6
20210921132524 42 188 0.0 0.0 0.00 0.00 0.00 61 1025.6
20210921131525 42 248 0.0 0.0 0.00 0.00 0.00 61 1025.6
20210921130529 42 194 0.0 0.0 0.00 0.00 0.00 61 1025.6
20210921125530 42 227 0.0 0.0 0.00 0.00 0.00 61 1025.6
20210921124530 42 182 0.0 0.0 0.00 0.00 0.00 62 1025.6
20210921123516 42 169 0.0 0.0 0.00 0.00 0.00 63 1025.6
20210921122517 42 179 0.0 0.0 0.00 0.00 0.00 64 1025.6
20210921121517 42 177 0.0 0.0 0.00 0.00 0.00 64 1025.7
20210921120523 42 190 0.0 0.0 0.00 0.00 0.00 63 1025.6
20210921115525 42 143 0.0 0.0 0.00 0.00 0.00 62 1025.7
20210921114524 43 185 0.0 0.0 0.00 0.00 0.00 61 1025.6
20210921113531 44 204 0.0 0.0 0.00 0.00 0.00 60 1025.7
20210921112512 44 165 0.0 0.0 0.00 0.00 0.00 60 1025.7
20210921111513 44 180 0.0 0.0 0.00 0.00 0.00 60 1025.7
20210921110518 44 304 0.0 0.0 0.00 0.00 0.00 60 1025.7
20210921105519 44 277 2.0 0.0 0.00 0.00 0.00 60 1025.7
20210921104519 44 207 0.0 0.0 0.00 0.00 0.00 61 1025.9
20210921103527 44 203 0.0 0.0 0.00 0.00 0.00 61 1025.9
20210921102526 44 196 0.0 0.0 0.00 0.00 0.00 61 1025.9
20210921101527 44 189 0.0 0.0 0.00 0.00 0.00 60 1025.7
20210921100514 44 189 0.0 0.0 0.00 0.00 0.00 61 1025.7
20210921095513 43 229 0.0 0.0 0.00 0.00 0.00 61 1025.6
20210921094515 43 223 0.0 0.0 0.00 0.00 0.00 63 1026.5
20210921093517 43 167 0.0 0.0 0.00 0.00 0.00 63 1026.5
20210921092522 44 171 0.0 0.0 0.00 0.00 0.00 61 1026.5
20210921091523 44 41 0.0 0.0 0.00 0.00 0.00 61 1026.5
20210921090524 44 187 0.0 0.0 0.00 0.00 0.00 62 1026.7
20210921085529 44 173 0.0 0.0 0.00 0.00 0.00 62 1026.6
20210921084530 44 222 0.0 0.0 0.00 0.00 0.00 62 1026.6
20210921083511 44 248 0.0 0.0 0.00 0.00 0.00 61 1026.6
20210921082517 45 215 0.0 0.0 0.00 0.00 0.00 62 1026.6
20210921081519 44 206 0.0 0.0 0.00 0.00 0.00 62 1026.5
20210921080520 44 217 0.0 0.0 0.00 0.00 0.00 63 1026.4
20210921075525 44 162 0.0 0.0 0.00 0.00 0.00 65 1026.4
20210921074526 43 173 0.0 0.0 0.00 0.00 0.00 65 1026.3
20210921073529 43 185 0.0 0.0 0.00 0.00 0.00 67 1026.3
20210921072513 43 263 0.0 0.0 0.00 0.00 0.00 67 1026.3
20210921071514 44 198 0.0 0.0 0.00 0.00 0.00 67 1026.3
20210921070517 44 185 0.0 0.0 0.00 0.00 0.00 66 1026.1
20210921065521 44 188 0.0 0.0 0.00 0.00 0.00 67 1026.1
20210921064522 44 186 0.0 0.0 0.00 0.00 0.00 67 1026.1
20210921063523 44 196 0.0 0.0 0.00 0.00 0.00 66 1026.1
20210921062524 44 202 0.0 0.0 0.00 0.00 0.00 66 1026.1
20210921061529 45 203 0.0 0.0 0.00 0.00 0.00 65 1026.1
20210921060531 45 203 0.0 0.0 0.00 0.00 0.00 63 1026.1
20210921055513 46 192 0.0 0.0 0.00 0.00 0.00 61 1026.1
20210921054517 46 225 0.0 0.0 0.00 0.00 0.00 60 1026.1
20210921053519 46 225 0.0 0.0 0.00 0.00 0.00 59 1026.1
20210921052520 46 225 0.0 0.0 0.00 0.00 0.00 59 1026.1
20210921051525 46 225 0.0 0.0 0.00 0.00 0.00 59 1026.1
20210921050527 46 225 0.0 0.0 0.00 0.00 0.00 59 1026.1
20210921045528 46 242 0.0 0.0 0.00 0.00 0.00 59 1026.0
20210921044513 46 252 0.0 0.0 0.00 0.00 0.00 59 1026.0
20210921043515 46 253 0.0 0.0 0.00 0.00 0.00 58 1026.0
20210921042515 46 253 0.0 0.0 0.00 0.00 0.00 57 1025.8
20210921041521 47 253 0.0 0.0 0.00 0.00 0.00 55 1025.8
20210921040524 47 315 0.0 0.0 0.00 0.00 0.00 54 1025.6
20210921035525 47 317 0.0 0.0 0.00 0.00 0.00 53 1025.7
20210921034530 47 317 0.0 0.0 0.00 0.00 0.00 53 1025.6
20210921033513 47 317 0.0 0.0 0.00 0.00 0.00 54 1025.4
20210921032513 47 317 0.0 0.0 0.00 0.00 0.00 55 1025.3
20210921031518 46 318 0.0 0.0 0.00 0.00 0.00 56 1025.2
20210921030519 46 319 0.0 0.0 0.00 0.00 0.00 58 1024.9
20210921025521 47 320 0.0 0.0 0.00 0.00 0.00 61 1024.8
20210921024522 47 11 0.0 0.0 0.00 0.00 0.00 60 1024.8
20210921023527 47 19 0.0 0.0 0.00 0.00 0.00 58 1024.7
20210921022528 47 69 0.0 0.0 0.00 0.00 0.00 57 1024.7
20210921021530 48 316 0.0 0.0 0.00 0.00 0.00 55 1024.6
20210921020516 48 350 0.0 0.0 0.00 0.00 0.00 54 1024.6
20210921015516 48 348 0.0 0.0 0.00 0.00 0.00 55 1024.3
20210921014517 47 337 0.0 0.0 0.00 0.00 0.00 56 1024.1
20210921013522 47 338 0.0 0.0 0.00 0.00 0.00 56 1024.0
20210921012523 48 340 0.0 0.0 0.00 0.00 0.00 55 1024.0
20210921011525 48 344 0.0 0.0 0.00 0.00 0.00 54 1023.9
20210921010530 49 331 1.0 0.0 0.00 0.00 0.00 55 1023.7
20210921005531 50 18 0.0 0.0 0.00 0.00 0.00 50 1023.5
20210921004511 50 347 0.0 0.0 0.00 0.00 0.00 50 1023.2
20210921003518 50 341 0.0 0.0 0.00 0.00 0.00 50 1023.0
20210921002519 50 346 0.0 0.0 0.00 0.00 0.00 49 1022.9
20210921001520 51 39 0.0 0.0 0.00 0.00 0.00 49 1022.9
20210921000527 52 340 0.0 0.0 0.00 0.00 0.00 48 1022.8
20210920235527 51 355 0.0 0.0 0.00 0.00 0.00 48 1022.8
20210920234529 51 38 0.0 0.0 0.00 0.00 0.00 49 1022.6
20210920233515 51 44 0.0 0.0 0.00 0.00 0.00 50 1022.6
20210920232515 50 20 2.0 0.0 0.00 0.00 0.00 50 1022.5
20210920231518 51 10 2.0 0.0 0.00 0.00 0.00 49 1022.2
20210920230519 51 345 0.0 0.0 0.00 0.00 0.00 49 1022.2
20210920225524 52 36 3.0 0.0 0.00 0.00 0.00 48 1022.1
20210920224525 54 16 0.0 0.0 0.00 0.00 0.00 46 1022.0
20210920223527 54 105 0.0 0.0 0.00 0.00 0.00 47 1022.0
20210920222511 53 348 0.0 0.0 0.00 0.00 0.00 49 1022.0
20210920221513 52 355 4.0 0.0 0.00 0.00 0.00 49 1022.1
20210920220513 52 360 0.0 0.0 0.00 0.00 0.00 50 1022.0
20210920215518 51 15 7.0 0.0 0.00 0.00 0.00 52 1022.0
20210920214519 52 15 4.0 0.0 0.00 0.00 0.00 51 1021.9
20210920213519 51 351 2.0 0.0 0.00 0.00 0.00 51 1021.8
20210920212525 50 19 11.0 0.0 0.00 0.00 0.00 50 1021.7
20210920211526 52 15 9.0 0.0 0.00 0.00 0.00 49 1021.5
20210920210527 51 13 1.0 0.0 0.00 0.00 0.00 49 1021.5
20210920205533 50 269 0.0 0.0 0.00 0.00 0.00 54 1021.5
20210920204512 50 5 5.0 0.0 0.00 0.00 0.00 54 1021.4
20210920203513 49 360 2.0 0.0 0.00 0.00 0.00 57 1021.4
20210920202518 49 18 10.0 0.0 0.00 0.00 0.00 58 1021.3
20210920201519 49 19 7.0 0.0 0.00 0.00 0.00 59 1021.2
20210920200522 50 262 2.0 0.0 0.00 0.00 0.00 60 1021.1
20210920195523 49 46 10.0 0.0 0.00 0.00 0.00 60 1021.1
20210920194528 48 360 5.0 0.0 0.00 0.00 0.00 62 1021.0
20210920193530 48 355 5.0 0.0 0.00 0.00 0.00 61 1021.1
20210920192530 49 360 0.0 0.0 0.00 0.00 0.00 59 1020.9
20210920191515 49 5 0.0 0.0 0.00 0.00 0.00 59 1020.9
20210920190517 49 28 0.0 0.0 0.00 0.00 0.00 59 1020.9
20210920185517 48 30 0.0 0.0 0.00 0.00 0.00 58 1020.8
20210920184521 49 46 0.0 0.0 0.00 0.00 0.00 55 1020.6
20210920183522 49 109 0.0 0.0 0.00 0.00 0.00 56 1020.5
20210920182522 49 178 0.0 0.0 0.00 0.00 0.00 56 1020.4
20210920181528 48 138 0.0 0.0 0.00 0.00 0.00 57 1020.3
20210920180530 49 187 0.0 0.0 0.00 0.00 0.00 55 1020.3
20210920175511 48 166 9.0 0.0 0.00 0.00 0.00 58 1020.2
20210920174515 48 155 1.0 0.0 0.00 0.00 0.00 58 1020.1
20210920173517 48 192 1.0 0.0 0.00 0.00 0.00 60 1020.0
20210920172517 47 18 0.0 0.0 0.00 0.00 0.00 62 1019.9
20210920171522 48 196 1.0 0.0 0.00 0.00 0.00 61 1019.9
20210920170523 48 155 0.0 0.0 0.00 0.00 0.00 62 1019.9
20210920165524 46 175 0.0 0.0 0.00 0.00 0.00 64 1019.8
20210920164525 46 76 0.0 0.0 0.00 0.00 0.00 64 1019.7
20210920163511 46 57 0.0 0.0 0.00 0.00 0.00 64 1019.4
20210920162511 45 150 0.0 0.0 0.00 0.00 0.00 67 1019.3
20210920161511 45 198 0.0 0.0 0.00 0.00 0.00 68 1019.3
20210920160517 45 169 0.0 0.0 0.00 0.00 0.00 67 1019.2
20210920155517 45 163 0.0 0.0 0.00 0.00 0.00 69 1019.0
20210920154515 44 23 0.0 0.0 0.00 0.00 0.00 70 1018.8
20210920153520 43 20 0.0 0.0 0.00 0.00 0.00 70 1018.6
20210920152522 43 24 2.0 0.0 0.00 0.00 0.00 71 1018.4
20210920151523 43 32 9.0 0.0 0.00 0.00 0.00 72 1018.1
20210920150530 43 40 10.0 0.0 0.00 0.00 0.00 72 1017.8
20210920145509 43 22 10.0 0.0 0.00 0.00 0.00 72 1017.7
20210920144512 43 34 10.0 0.0 0.00 0.00 0.00 72 1017.6
20210920143515 42 40 10.0 0.0 0.00 0.00 0.00 72 1017.4
20210920142516 43 40 3.0 0.0 0.00 0.00 0.00 71 1017.3
20210920141517 43 34 0.0 0.0 0.00 0.00 0.00 72 1017.4
20210920140521 42 38 0.0 0.0 0.00 0.00 0.00 72 1017.2